TimeMST,TemperatureF,Dew PointF,Humidity,Sea Level PressureIn,VisibilityMPH,Wind Direction,Wind SpeedMPH,Gust SpeedMPH,PrecipitationIn,Events,Conditions,WindDirDegrees,DateUTC
12:15 AM,42.8,14.0,31,30.08,10.0,South,8.1,-,N/A,,Clear,170,2012-12-13 07:15:00
12:35 AM,41.0,14.0,33,30.08,10.0,South,5.8,-,N/A,,Clear,180,2012-12-13 07:35:00
12:55 AM,41.0,15.8,36,30.08,10.0,SSE,9.2,-,N/A,,Clear,160,2012-12-13 07:55:00
1:15 AM,42.8,15.8,34,30.07,10.0,SSE,10.4,-,N/A,,Clear,160,2012-12-13 08:15:00
1:35 AM,42.8,17.6,36,30.07,10.0,SSE,4.6,-,N/A,,Clear,150,2012-12-13 08:35:00
1:55 AM,41.0,15.8,36,30.07,10.0,SSE,6.9,-,N/A,,Clear,150,2012-12-13 08:55:00
2:15 AM,42.8,17.6,36,30.07,10.0,SSE,8.1,-,N/A,,Clear,160,2012-12-13 09:15:00
2:35 AM,41.0,17.6,39,30.07,10.0,South,6.9,-,N/A,,Clear,170,2012-12-13 09:35:00
2:55 AM,41.0,17.6,39,30.06,10.0,South,5.8,-,N/A,,Clear,180,2012-12-13 09:55:00
3:15 AM,33.8,12.2,41,30.06,10.0,Calm,Calm,-,N/A,,Clear,0,2012-12-13 10:15:00
3:35 AM,32.0,12.2,44,30.06,10.0,ESE,4.6,-,N/A,,Clear,120,2012-12-13 10:35:00
3:55 AM,32.0,12.2,44,30.05,10.0,Calm,Calm,-,N/A,,Clear,0,2012-12-13 10:55:00
4:15 AM,32.0,12.2,44,30.05,10.0,ENE,3.5,-,N/A,,Clear,70,2012-12-13 11:15:00
4:35 AM,32.0,12.2,44,30.04,10.0,East,3.5,-,N/A,,Clear,80,2012-12-13 11:35:00
4:55 AM,32.0,12.2,44,30.05,10.0,ESE,3.5,-,N/A,,Clear,120,2012-12-13 11:55:00
5:15 AM,32.0,12.2,44,30.05,10.0,SE,5.8,-,N/A,,Clear,130,2012-12-13 12:15:00
5:35 AM,30.2,12.2,47,30.06,10.0,SE,8.1,-,N/A,,Clear,130,2012-12-13 12:35:00
5:55 AM,32.0,12.2,44,30.06,10.0,SSE,6.9,-,N/A,,Clear,160,2012-12-13 12:55:00
6:15 AM,33.8,15.8,48,30.05,10.0,SSE,8.1,-,N/A,,Clear,160,2012-12-13 13:15:00
6:35 AM,37.4,17.6,45,30.06,10.0,South,6.9,-,N/A,,Clear,180,2012-12-13 13:35:00
6:55 AM,33.8,14.0,44,30.06,10.0,East,3.5,-,N/A,,Scattered Clouds,100,2012-12-13 13:55:00
7:15 AM,32.0,12.2,44,30.06,10.0,SE,4.6,-,N/A,,Mostly Cloudy,130,2012-12-13 14:15:00
7:35 AM,32.0,14.0,48,30.06,10.0,ESE,3.5,-,N/A,,Mostly Cloudy,120,2012-12-13 14:35:00
7:55 AM,37.4,15.8,41,30.08,10.0,East,3.5,-,N/A,,Overcast,90,2012-12-13 14:55:00
8:15 AM,48.2,21.2,34,30.08,10.0,SSE,9.2,-,N/A,,Overcast,150,2012-12-13 15:15:00
8:35 AM,46.4,19.4,34,30.08,10.0,SSE,13.8,-,N/A,,Overcast,160,2012-12-13 15:35:00
8:55 AM,48.2,19.4,32,30.08,10.0,SSE,12.7,-,N/A,,Overcast,150,2012-12-13 15:55:00
9:15 AM,50.0,19.4,30,30.08,10.0,SSE,11.5,-,N/A,,Overcast,150,2012-12-13 16:15:00
9:35 AM,51.8,21.2,30,30.08,10.0,SSE,12.7,-,N/A,,Mostly Cloudy,160,2012-12-13 16:35:00
9:55 AM,53.6,21.2,28,30.08,10.0,SSE,13.8,19.6,N/A,,Scattered Clouds,150,2012-12-13 16:55:00
10:15 AM,55.4,21.2,26,30.08,10.0,SSE,11.5,-,N/A,,Clear,150,2012-12-13 17:15:00
10:35 AM,55.4,21.2,26,30.07,10.0,SE,13.8,18.4,N/A,,Clear,140,2012-12-13 17:35:00
10:55 AM,59.0,23.0,25,30.07,10.0,SSE,13.8,-,N/A,,Clear,150,2012-12-13 17:55:00
11:15 AM,59.0,23.0,25,30.06,10.0,SSE,12.7,-,N/A,,Clear,150,2012-12-13 18:15:00
11:35 AM,60.8,24.8,25,30.05,10.0,SE,12.7,18.4,N/A,,Clear,140,2012-12-13 18:35:00
11:55 AM,62.6,28.4,27,30.03,10.0,SE,11.5,-,N/A,,Clear,130,2012-12-13 18:55:00
12:15 PM,62.6,32.0,32,30.02,10.0,SE,9.2,-,N/A,,Clear,130,2012-12-13 19:15:00
12:35 PM,62.6,32.0,32,30.00,10.0,SE,13.8,19.6,N/A,,Clear,140,2012-12-13 19:35:00
12:55 PM,62.6,32.0,32,29.99,10.0,SE,8.1,16.1,N/A,,Clear,130,2012-12-13 19:55:00
1:15 PM,64.4,32.0,30,29.98,10.0,SE,11.5,-,N/A,,Clear,130,2012-12-13 20:15:00
1:35 PM,62.6,32.0,32,29.98,10.0,SSE,6.9,-,N/A,,Clear,160,2012-12-13 20:35:00
1:55 PM,62.6,30.2,30,29.97,10.0,SE,9.2,-,N/A,,Scattered Clouds,130,2012-12-13 20:55:00
2:15 PM,64.4,32.0,30,29.96,10.0,South,15.0,25.3,N/A,,Scattered Clouds,180,2012-12-13 21:15:00
2:35 PM,64.4,32.0,30,29.95,10.0,SSW,6.9,-,N/A,,Scattered Clouds,210,2012-12-13 21:35:00
2:55 PM,64.4,32.0,30,29.95,10.0,SSW,6.9,-,N/A,,Scattered Clouds,200,2012-12-13 21:55:00
3:15 PM,64.4,32.0,30,29.94,10.0,SSW,16.1,20.7,N/A,,Mostly Cloudy,210,2012-12-13 22:15:00
3:35 PM,64.4,32.0,30,29.95,10.0,SSW,15.0,21.9,N/A,,Scattered Clouds,210,2012-12-13 22:35:00
6:15 PM,59.0,32.0,36,29.93,10.0,SSW,12.7,17.3,N/A,,Overcast,200,2012-12-14 01:15:00
6:35 PM,59.0,32.0,36,29.92,10.0,SSW,9.2,-,N/A,,Scattered Clouds,200,2012-12-14 01:35:00
6:55 PM,59.0,32.0,36,29.91,10.0,SW,9.2,-,N/A,,Scattered Clouds,220,2012-12-14 01:55:00
7:15 PM,57.2,32.0,38,29.90,10.0,ESE,4.6,-,N/A,,Overcast,110,2012-12-14 02:15:00
7:35 PM,55.4,32.0,41,29.89,10.0,South,5.8,-,N/A,,Overcast,190,2012-12-14 02:35:00
7:55 PM,55.4,32.0,41,29.89,10.0,ESE,8.1,-,N/A,,Overcast,120,2012-12-14 02:55:00
8:15 PM,57.2,32.0,38,29.89,10.0,SE,11.5,-,N/A,,Overcast,130,2012-12-14 03:15:00
8:35 PM,55.4,32.0,41,29.89,10.0,SE,11.5,-,N/A,,Overcast,130,2012-12-14 03:35:00
8:55 PM,55.4,32.0,41,29.91,10.0,SSE,8.1,-,N/A,,Overcast,150,2012-12-14 03:55:00
9:15 PM,53.6,33.8,47,29.93,10.0,SE,13.8,-,N/A,,Light Drizzle,140,2012-12-14 04:15:00
9:35 PM,51.8,39.2,62,29.92,10.0,SE,11.5,-,N/A,Rain,Light Rain,130,2012-12-14 04:35:00
9:55 PM,50.0,41.0,71,29.90,10.0,ESE,11.5,-,N/A,,Light Drizzle,120,2012-12-14 04:55:00
10:15 PM,50.0,41.0,71,29.91,10.0,SSE,5.8,-,N/A,,Drizzle,150,2012-12-14 05:15:00
10:35 PM,48.2,42.8,82,29.90,10.0,SSE,8.1,-,0.01,Rain,Rain,150,2012-12-14 05:35:00
10:55 PM,48.2,44.6,87,29.89,10.0,South,4.6,-,0.01,Rain,Light Rain,180,2012-12-14 05:55:00
11:15 PM,50.0,42.8,76,29.87,10.0,SE,10.4,-,N/A,,Overcast,130,2012-12-14 06:15:00
11:35 PM,50.0,42.8,76,29.86,10.0,SE,16.1,-,N/A,,Overcast,140,2012-12-14 06:35:00
11:55 PM,51.8,42.8,71,29.85,10.0,SE,18.4,27.6,N/A,,Light Drizzle,130,2012-12-14 06:55:00